SCP
0 0 0 0 0 0 0 0 0 0 0 0 0 1 0 1 1 1 1 1 1 1 1 2 2 2 2 3 5 6 4 3 3 3 3 3 3 3 3 3 4 4 4 4
0 0 0 0 0 0 0 0 0 0 0 0 0 1 0 1 1 1 1 1 1 1 1 2 2 2 2 3 4 5 5 4 4 4 4 4 4 3 3 3 4 4 4 4
0 0 0 0 0 0 0 0 0 0 0 0 0 0 0 0 1 1 1 1 1 1 2 2 3 3 3 3 4 4 5 5 5 5 5 5 5 4 3 3 4 4 5 5
0 0 0 0 0 0 0 0 0 0 0 0 0 0 0 0 0 1 1 1 2 2 2 2 3 3 3 4 4 4 5 5 5 6 6 6 5 4 3 3 4 5 5 5
0 0 0 0 0 0 0 0 0 0 0 0 0 0 0 0 0 0 0 1 1 1 2 2 2 3 3 4 4 5 5 5 5 6 7 6 5 3 3 3 4 4 4 4
0 0 0 0 0 0 0 0 0 0 0 0 0 0 0 0 0 0 0 1 1 1 1 2 2 2 3 3 4 5 5 5 5 6 6 5 4 3 3 3 3 4 3 3
0 0 0 0 0 0 0 0 0 0 0 0 0 0 0 0 0 0 0 0 1 1 1 1 1 2 2 3 4 5 5 4 5 5 5 4 3 2 2 3 3 3 3 3
0 0 0 0 0 0 0 0 0 0 0 0 0 0 0 0 0 0 0 0 1 1 1 1 1 2 3 4 5 5 5 4 4 5 4 3 2 2 2 3 3 3 4 4
0 0 0 0 0 0 0 0 0 0 0 0 0 0 0 0 0 0 0 1 1 1 1 2 2 3 3 4 5 5 5 4 4 4 4 3 3 3 3 3 3 3 3 3
0 0 0 0 0 0 0 0 0 0 0 0 0 0 0 0 0 0 1 1 1 1 1 2 3 4 4 5 6 5 4 4 4 4 4 3 3 3 3 3 2 2 2 2
0 0 0 0 0 0 0 0 0 0 0 0 0 0 0 0 0 0 1 1 1 1 1 1 2 3 4 6 6 5 4 4 4 4 3 3 3 2 2 2 2 1 1 2
0 0 0 0 0 0 0 0 0 0 0 0 0 0 0 0 0 0 1 0 0 0 0 0 0 1 3 6 6 5 5 5 4 4 3 3 2 2 1 1 1 1 1 1
0 0 0 0 0 0 0 0 0 0 0 0 0 0 0 0 1 1 1 0 0 0 0 0 0 0 2 5 7 6 4 5 5 5 4 3 2 2 1 1 1 1 1 1
0 0 0 0 0 0 0 0 0 0 0 0 0 0 0 0 0 1 1 1 1 0 0 0 0 0 1 4 7 6 4 5 6 6 4 4 3 2 2 1 1 1 1 1
0 0 0 0 0 0 0 0 0 0 0 0 0 0 0 0 0 0 1 1 1 1 0 0 0 0 1 3 6 6 4 4 6 6 5 4 3 3 2 2 1 1 1 1
0 0 0 0 0 0 0 0 0 0 0 0 0 1 0 0 0 0 1 1 1 1 1 1 0 0 1 3 6 7 5 4 6 7 6 5 3 3 2 2 2 1 1 1
0 0 0 0 0 0 0 0 0 0 0 0 0 0 0 0 0 0 0 1 1 1 1 1 1 0 0 2 5 7 6 5 6 7 7 6 4 3 2 2 2 2 1 1
0 0 0 0 0 0 0 0 0 0 0 0 0 0 0 0 0 0 0 0 1 1 1 1 1 0 0 1 5 8 8 6 7 7 7 6 4 3 2 2 2 2 2 2
0 0 0 0 0 0 0 0 0 0 0 0 0 0 0 0 0 0 0 0 0 1 1 1 0 0 0 1 3 7 9 8 7 7 7 6 6 4 3 2 3 3 3 3
0 0 0 0 0 0 0 0 0 0 0 0 0 0 0 0 0 0 0 0 0 0 0 0 0 0 0 1 3 6 8 8 7 6 5 6 7 6 5 4 4 4 4 3
0 0 0 0 0 0 0 0 0 0 0 0 0 0 0 0 0 0 0 0 0 0 0 0 0 0 1 2 3 6 8 9 7 5 4 5 6 7 7 6 5 5 4 4
0 0 0 0 0 0 0 0 0 0 0 0 0 0 0 0 0 0 0 0 0 0 0 0 0 1 2 3 5 7 10 10 7 4 3 3 5 7 7 6 5 5 5 4
0 0 0 0 0 0 0 0 0 0 0 0 0 0 0 0 0 0 0 0 0 0 0 0 0 1 2 4 6 9 12 10 7 4 2 3 4 6 6 6 6 5 5 5
0 0 0 0 0 0 0 0 0 0 0 0 0 0 0 0 0 1 1 1 1 0 0 0 0 1 3 4 6 9 12 11 7 4 3 2 3 4 5 5 5 5 5 5
0 0 0 0 0 0 0 0 0 0 0 0 0 0 0 0 0 1 1 1 0 0 0 0 1 1 3 5 5 8 12 11 8 5 3 2 2 3 3 3 3 3 3 3
0 0 0 0 0 1 0 0 0 1 0 0 0 0 0 0 0 0 0 0 0 0 0 0 1 2 4 5 5 8 11 11 7 4 2 1 1 2 2 1 1 1 2 2
Wind_Speed
3 4 4 7 8 6 3 2 5 6 3 1 3 5 6 3 0 1 1 2 3 4 3 3 3 4 5 5 6 7 7 6 5 4 4 4 3 3 3 3 4 5 4 5
3 4 7 4 4 4 4 3 4 6 2 1 2 4 4 1 2 2 2 2 3 1 1 2 3 4 5 5 6 6 7 7 6 5 4 3 3 2 2 2 3 4 5 5
7 6 3 4 2 3 4 5 5 5 4 2 1 5 4 3 1 1 1 1 1 2 3 3 4 4 4 5 6 6 6 6 6 5 3 2 2 1 1 2 2 3 4 5
5 5 2 2 4 5 5 6 6 4 1 3 0 3 5 3 3 2 2 1 1 1 2 2 2 3 4 5 5 5 5 6 5 5 5 6 4 4 4 3 3 2 3 4
6 4 4 5 6 6 6 3 3 3 3 1 1 1 7 3 3 4 3 2 2 2 2 2 2 3 3 3 4 4 5 4 4 5 6 6 4 3 2 2 3 3 3 3
5 3 5 6 4 5 3 4 4 5 4 1 3 3 6 3 4 3 2 1 1 0 1 1 1 1 1 2 3 3 3 3 4 4 5 5 5 4 4 3 3 3 2 3
3 3 3 3 1 1 4 6 4 4 3 5 2 3 7 5 3 3 2 2 1 1 1 1 1 2 2 3 4 4 4 3 4 4 4 5 5 5 5 4 4 3 2 3
2 6 4 3 5 4 3 8 7 5 5 5 1 4 6 2 1 1 0 0 1 1 1 1 1 2 3 3 3 4 4 4 4 4 4 4 4 4 3 4 4 4 3 3
5 6 4 2 3 7 5 3 5 6 2 1 4 4 5 1 3 3 2 3 2 2 2 1 0 1 2 2 3 3 4 3 4 4 4 3 4 4 4 3 3 2 2 2
6 3 4 2 3 3 5 7 5 5 4 3 4 4 4 2 2 2 2 2 2 2 3 2 1 1 2 2 2 3 2 3 3 3 4 3 3 3 3 3 3 3 3 2
4 4 3 2 2 2 3 3 4 4 4 5 3 6 3 4 3 2 1 1 2 2 2 2 1 0 1 2 2 2 2 2 2 2 2 2 2 2 2 2 3 3 2 2
2 5 2 3 3 1 4 5 6 5 3 4 3 7 2 2 2 1 1 1 2 1 1 2 2 1 1 1 1 2 2 2 2 2 2 2 2 2 2 3 3 3 3 3
3 5 2 4 3 3 3 2 3 5 4 4 4 6 1 2 2 1 0 1 2 2 2 3 2 2 1 0 1 1 2 3 2 2 2 2 2 2 2 2 2 2 3 2
4 4 5 7 6 3 1 1 2 4 4 4 6 5 2 2 2 3 2 1 1 2 2 3 3 2 1 1 1 1 2 2 3 3 3 3 3 2 2 2 2 2 2 3
4 2 2 2 2 2 2 2 2 3 5 6 5 5 4 3 3 2 1 2 2 2 3 3 2 2 2 1 1 1 1 2 3 3 3 3 3 2 2 2 2 2 2 2
3 2 1 0 0 1 1 2 2 2 2 3 3 4 3 2 1 0 1 1 2 2 2 2 3 3 3 2 2 2 1 2 2 3 4 3 2 2 2 2 2 2 2 1
1 2 2 2 1 2 3 3 3 2 1 3 4 5 2 2 2 2 2 2 3 3 3 3 3 3 3 3 2 2 2 1 2 3 3 3 3 2 2 2 2 2 2 2
3 3 2 1 1 4 4 1 1 1 2 2 2 2 2 3 3 2 2 3 3 3 3 3 3 4 3 3 2 1 1 1 2 3 3 3 3 3 3 2 2 2 2 2
3 4 3 3 2 3 3 1 1 2 4 2 2 2 2 2 2 2 2 2 3 3 3 4 3 3 2 2 2 0 0 1 2 2 3 3 3 3 3 3 3 3 2 2
3 3 3 2 3 4 4 3 3 0 3 2 1 2 2 2 2 4 2 1 3 3 2 2 2 1 1 2 1 1 1 1 3 3 3 3 3 4 4 4 3 2 2 2
3 3 2 2 2 4 3 4 2 2 5 3 1 2 2 3 4 4 3 3 3 3 3 2 1 1 2 1 0 1 2 3 3 3 2 2 2 3 3 3 2 2 2 1
2 1 1 2 2 5 3 1 2 4 3 3 3 3 3 4 5 4 4 4 3 3 2 2 1 2 2 1 1 1 3 3 2 1 2 2 2 2 2 2 2 2 2 2
1 3 3 4 5 4 2 2 3 2 3 4 3 4 4 5 6 5 5 4 4 3 3 2 1 2 2 1 2 2 2 2 1 1 1 1 1 1 1 2 2 2 2 2
2 0 1 2 4 3 4 4 3 3 4 5 4 4 4 5 6 6 5 5 4 4 3 2 1 2 3 2 2 2 2 1 1 0 1 1 0 0 0 0 1 2 2 2
3 1 1 3 5 5 4 4 4 4 4 4 4 4 5 5 6 6 5 5 4 3 3 2 3 3 4 2 2 2 1 1 0 0 0 1 0 0 0 1 1 2 3 4
2 3 3 5 5 3 6 6 5 5 6 5 5 6 6 5 6 5 5 4 4 3 3 2 2 3 3 2 2 2 2 3 2 1 1 1 0 0 0 1 1 2 2 3
Wind_Direction
111 102 202 211 194 196 202 220 263 267 268 348 266 282 300 302 72 231 217 206 204 214 208 172 170 163 165 167 171 179 179 175 164 167 171 172 186 186 189 199 194 192 196 191
64 240 226 197 187 191 207 241 264 290 312 178 263 289 297 294 215 209 202 205 208 191 140 170 162 162 174 177 181 182 180 176 177 180 177 174 166 178 186 201 198 187 191 193
188 232 182 162 192 198 220 209 228 247 333 4 342 317 311 300 315 334 241 211 199 178 189 186 174 174 171 179 186 186 179 175 177 167 143 121 103 98 162 196 206 195 190 191
223 241 175 189 216 183 249 231 209 211 151 285 136 277 289 289 319 312 293 264 235 209 179 170 161 180 189 193 178 169 166 167 167 162 168 170 178 188 199 194 191 188 191 195
234 211 186 213 224 181 222 225 186 182 166 271 340 202 284 312 292 286 289 271 243 213 170 162 170 204 202 186 171 165 156 156 160 167 173 178 184 183 159 158 174 183 186 196
236 225 194 212 220 186 180 67 54 55 83 259 235 179 274 258 242 268 297 301 326 128 112 125 130 158 154 147 145 140 153 162 166 162 166 174 174 161 154 166 181 188 187 196
307 290 247 187 138 42 93 87 33 5 11 249 236 182 246 248 234 227 255 300 351 47 108 104 110 171 163 154 160 162 177 184 182 172 173 178 177 175 176 177 191 195 194 201
195 275 249 195 183 186 172 142 158 193 218 265 289 227 248 261 313 334 357 21 47 34 46 95 184 190 177 176 174 175 183 190 186 186 189 184 176 178 183 179 185 197 205 202
181 247 280 236 181 148 143 172 164 138 158 249 268 275 292 355 5 12 38 41 27 18 19 33 103 160 169 175 181 185 188 188 190 192 185 181 182 181 179 172 169 181 192 184
160 229 285 300 74 57 132 141 105 126 158 234 268 254 248 260 298 338 12 5 349 2 6 17 39 140 169 181 178 166 172 186 186 186 185 184 185 186 178 165 174 181 182 174
139 172 297 11 130 174 96 98 111 127 159 167 234 261 234 201 204 212 254 298 310 336 339 334 345 157 146 122 136 152 160 157 163 182 187 175 176 178 168 168 181 180 171 169
144 133 225 263 272 177 141 154 144 151 213 181 188 261 295 177 181 169 220 287 332 326 319 339 360 38 95 117 126 156 161 163 183 178 170 177 168 172 182 192 190 178 174 179
128 115 87 349 348 19 82 117 143 132 133 165 186 254 328 35 18 17 334 319 344 343 357 14 19 25 37 143 146 165 183 185 176 167 167 171 178 170 183 196 190 181 176 183
111 120 164 193 213 198 183 192 156 136 160 201 217 231 268 301 316 330 333 325 331 349 8 10 2 352 333 275 200 200 205 195 172 166 171 182 196 191 191 185 175 185 186 192
88 142 200 220 223 166 186 223 202 187 191 198 230 226 240 242 245 265 301 321 348 5 11 1 342 329 326 296 255 230 222 195 179 174 188 202 201 182 171 172 184 187 191 205
55 138 146 316 246 117 299 278 251 231 206 224 249 258 259 264 211 234 309 304 307 324 334 331 324 320 314 289 263 249 239 222 187 187 201 196 183 179 173 176 190 185 194 205
28 120 118 233 257 36 283 248 213 210 235 193 217 245 256 296 270 241 247 248 252 283 303 302 292 288 286 281 267 255 254 238 207 202 196 184 179 181 187 192 181 194 199 199
156 126 129 151 103 223 243 302 174 198 255 246 249 255 234 252 257 253 239 236 254 276 285 289 287 286 290 291 288 271 239 209 217 212 199 191 188 184 185 188 201 208 201 202
162 139 126 131 170 265 280 316 308 238 265 284 263 289 332 347 348 310 272 234 241 261 268 269 271 276 290 293 285 267 267 223 226 225 213 207 195 190 187 196 210 204 195 214
59 89 116 131 164 228 253 294 293 161 268 297 248 266 292 0 313 280 281 270 278 282 277 279 291 296 298 294 261 160 207 223 239 242 233 216 193 195 202 206 211 202 193 215
35 38 112 167 210 256 287 309 16 185 257 287 276 271 268 251 242 266 278 281 270 270 272 278 279 273 273 276 214 187 217 236 252 251 229 212 199 203 201 197 195 183 181 179
152 141 172 150 196 253 310 58 173 240 288 307 300 284 272 279 284 273 265 264 263 271 271 270 269 284 284 250 180 225 260 267 269 247 216 204 195 202 192 187 194 174 167 178
177 191 184 191 220 257 288 240 259 265 283 287 280 284 280 284 284 280 269 262 260 253 258 266 254 278 286 257 193 209 263 286 277 251 251 240 209 188 185 182 183 174 178 193
301 6 166 250 268 279 290 293 299 288 269 273 274 277 277 273 270 270 267 264 261 254 244 250 236 252 272 265 241 224 230 258 273 258 300 288 249 267 352 166 184 187 199 207
277 303 259 268 286 310 309 293 293 300 302 293 286 276 269 264 263 260 259 257 251 245 238 221 221 233 247 252 250 240 205 150 152 294 312 316 316 260 336 290 250 227 228 213
253 226 226 249 257 254 277 289 296 299 295 288 284 286 282 260 252 253 249 247 245 240 233 226 225 227 235 228 235 230 192 162 151 174 277 290 296 262 216 234 329 328 270 261